OE-11141 Weather Reports


Display with metric or nautical units.
time (UTC)temp
F
wind
direction
speed
MPH
gust
MPH
rain 1hr
in
rain 24hr
in
rain mn
in
humidity
%
barometer
mb
20260903081118 67 111 2.0 4.0 0.00 0.00 0.00 66 1022.3
20260903080505 65 146 2.0 4.0 0.00 0.00 0.00 68 1022.7
20260903075505 65 147 2.0 5.0 0.00 0.00 0.00 69 1022.9
20260903074118 64 132 2.0 4.0 0.00 0.00 0.00 71 1022.9
20260903073504 63 152 2.0 4.0 0.00 0.00 0.00 73 1023.1
20260903072504 63 143 3.0 6.0 0.00 0.00 0.00 75 1023.1
20260903071118 62 141 3.0 6.0 0.00 0.00 0.00 81 1023.2
20260903070505 63 107 1.0 3.0 0.00 0.00 0.00 80 1023.2
20260903065505 61 153 4.0 6.0 0.00 0.00 0.00 83 1023.3
20260903064117 61 150 2.0 5.0 0.00 0.00 0.00 83 1023.5
20260903063504 61 145 2.0 4.0 0.00 0.00 0.00 84 1023.5
20260903062505 60 148 2.0 3.0 0.00 0.00 0.00 84 1023.5
20260903061118 60 219 1.0 2.0 0.00 0.00 0.00 85 1023.7
20260903060505 60 23 1.0 2.0 0.00 0.00 0.00 86 1023.6
20260903055504 60 355 1.0 2.0 0.00 0.00 0.00 87 1023.5
20260903054117 59 148 2.0 4.0 0.00 0.00 0.00 88 1023.5
20260903053504 59 121 1.0 3.0 0.00 0.00 0.00 87 1023.4
20260903052505 59 161 1.0 4.0 0.00 0.00 0.00 86 1023.3
20260903051118 59 166 2.0 3.0 0.00 0.00 0.00 86 1023.2
20260903050504 59 128 2.0 3.0 0.00 0.00 0.00 89 1023.2
20260903045505 59 188 0.0 4.0 0.00 0.00 0.00 89 1023.2
20260903044117 60 341 1.0 5.0 0.00 0.00 0.00 87 1022.8
20260903043505 59 152 2.0 4.0 0.00 0.00 0.00 87 1023.2
20260903042505 59 148 1.0 3.0 0.00 0.00 0.00 88 1023.1
20260903041117 59 144 3.0 5.0 0.00 0.00 0.00 88 1022.9
20260903040505 59 204 1.0 4.0 0.00 0.00 0.00 88 1022.9
20260903035505 59 153 1.0 3.0 0.00 0.00 0.00 88 1023.1
20260903034504 59 104 2.0 3.0 0.00 0.00 0.00 87 1023.1
20260903033504 59 155 2.0 6.0 0.00 0.00 0.00 88 1022.9
20260903032505 59 143 3.0 6.0 0.00 0.00 0.00 87 1022.8
20260903031118 59 166 1.0 2.0 0.00 0.00 0.00 87 1022.8
20260903030505 60 41 1.0 4.0 0.00 0.00 0.00 87 1022.8
20260903025505 60 150 2.0 4.0 0.00 0.00 0.00 86 1022.8
20260903024505 59 116 2.0 4.0 0.00 0.00 0.00 87 1022.9
20260903023505 60 205 1.0 3.0 0.00 0.00 0.00 86 1022.8
20260903022505 59 62 1.0 3.0 0.00 0.00 0.00 88 1022.8
20260903021117 60 252 0.0 2.0 0.00 0.00 0.00 87 1022.8
20260903020505 60 120 1.0 4.0 0.00 0.00 0.00 87 1022.7
20260903015505 60 321 1.0 4.0 0.00 0.00 0.00 86 1022.8
20260903014117 60 121 1.0 3.0 0.00 0.00 0.00 86 1022.8
20260903013504 60 110 1.0 3.0 0.00 0.00 0.00 86 1022.8
20260903012504 60 250 1.0 4.0 0.00 0.00 0.00 85 1022.8
20260903011118 60 99 1.0 3.0 0.00 0.00 0.00 86 1022.7
20260903010505 60 62 1.0 2.0 0.00 0.00 0.00 84 1022.7
20260903005505 60 301 1.0 3.0 0.00 0.00 0.00 85 1022.8
20260903004118 60 360 0.0 2.0 0.00 0.00 0.00 84 1022.7
20260903003505 60 137 1.0 2.0 0.00 0.00 0.00 84 1022.7
20260903002505 60 75 1.0 2.0 0.00 0.00 0.00 84 1022.7
20260903001517 60 172 0.0 2.0 0.00 0.00 0.00 83 1022.7
20260903000504 60 154 3.0 5.0 0.00 0.00 0.00 84 1022.7
20260902235504 60 178 0.0 4.0 0.00 0.00 0.00 84 1022.7
20260902234118 61 134 2.0 5.0 0.00 0.00 0.00 83 1022.6
20260902233504 60 148 2.0 3.0 0.00 0.00 0.00 85 1022.7
20260902232504 60 160 0.0 3.0 0.00 0.00 0.00 85 1022.6
20260902231505 60 43 1.0 4.0 0.00 0.00 0.00 84 1022.5
20260902230504 61 163 1.0 3.0 0.00 0.00 0.00 83 1022.4
20260902225505 61 113 1.0 3.0 0.00 0.00 0.00 83 1022.3
20260902224118 60 143 1.0 2.0 0.00 0.00 0.00 84 1022.3
20260902223505 61 356 1.0 2.0 0.00 0.00 0.00 82 1022.1
20260902222505 62 328 1.0 3.0 0.00 0.00 0.00 82 1022.0
20260902221118 62 137 1.0 2.0 0.00 0.00 0.00 82 1021.9
20260902220504 63 346 1.0 3.0 0.00 0.00 0.00 79 1021.8
20260902215504 63 328 1.0 4.0 0.00 0.00 0.00 78 1021.6
20260902214118 63 137 2.0 4.0 0.00 0.00 0.00 76 1021.5
20260902213504 63 152 3.0 5.0 0.00 0.00 0.00 80 1021.6
20260902211119 64 353 2.0 3.0 0.00 0.00 0.00 76 1021.1
20260902210505 65 194 1.0 5.0 0.00 0.00 0.00 73 1021.0
20260902205505 64 157 5.0 8.0 0.00 0.00 0.00 73 1021.1
20260902204119 64 128 3.0 5.0 0.00 0.00 0.00 77 1021.0
20260902203504 65 147 3.0 6.0 0.00 0.00 0.00 73 1020.9
20260902202505 65 171 5.0 10.0 0.00 0.00 0.00 72 1020.9
20260902201118 66 140 4.0 9.0 0.00 0.00 0.00 68 1020.8
20260902200505 65 148 4.0 7.0 0.00 0.00 0.00 69 1020.7
20260902195505 66 172 4.0 9.0 0.00 0.00 0.00 68 1020.7
20260902194118 66 162 6.0 13.0 0.00 0.00 0.00 69 1020.6
20260902193505 66 147 4.0 8.0 0.00 0.00 0.00 68 1020.5
20260902192504 67 145 6.0 11.0 0.00 0.00 0.00 67 1020.3
20260902191118 67 145 5.0 10.0 0.00 0.00 0.00 67 1020.3
20260902190504 67 128 4.0 8.0 0.00 0.00 0.00 66 1020.2
20260902185505 68 132 3.0 6.0 0.00 0.00 0.00 63 1020.0
20260902184118 69 151 4.0 8.0 0.00 0.00 0.00 62 1019.7
20260902183505 69 142 3.0 6.0 0.00 0.00 0.00 62 1019.3
20260902182505 70 160 2.0 5.0 0.00 0.00 0.00 60 1019.0
20260902181118 70 175 3.0 5.0 0.00 0.00 0.00 60 1018.8
20260902180505 71 244 1.0 11.0 0.00 0.00 0.00 57 1018.6
20260902175505 73 17 6.0 13.0 0.00 0.00 0.00 53 1018.2
20260902174118 73 23 6.0 15.0 0.00 0.00 0.00 53 1018.0
20260902173504 73 18 7.0 15.0 0.00 0.00 0.00 52 1017.6
20260902172505 73 26 8.0 16.0 0.00 0.00 0.00 50 1017.4
20260902171118 74 44 6.0 14.0 0.00 0.00 0.00 49 1017.3
20260902170505 74 16 4.0 11.0 0.00 0.00 0.00 49 1017.1
20260902165505 75 26 7.0 17.0 0.00 0.00 0.00 46 1017.1
20260902164118 76 18 9.0 14.0 0.00 0.00 0.00 46 1017.0
20260902163505 76 7 9.0 16.0 0.00 0.00 0.00 46 1016.8
20260902162505 76 357 8.0 16.0 0.00 0.00 0.00 45 1016.7
20260902161118 77 4 8.0 13.0 0.00 0.00 0.00 44 1016.5
20260902160504 78 33 4.0 13.0 0.00 0.00 0.00 42 1016.4
20260902155505 79 353 5.0 10.0 0.00 0.00 0.00 40 1016.3
20260902154118 79 350 5.0 9.0 0.00 0.00 0.00 39 1016.2
20260902153505 79 17 6.0 12.0 0.00 0.00 0.00 39 1016.3
20260902152504 78 25 6.0 14.0 0.00 0.00 0.00 39 1016.5
20260902151118 78 14 9.0 14.0 0.00 0.00 0.00 38 1016.6
20260902150505 78 10 8.0 13.0 0.00 0.00 0.00 39 1016.6
20260902145505 78 359 9.0 14.0 0.00 0.00 0.00 40 1016.7
20260902144118 78 15 7.0 13.0 0.00 0.00 0.00 40 1016.6
20260902143504 78 2 8.0 14.0 0.00 0.00 0.00 43 1016.7
20260902142505 78 10 10.0 17.0 0.00 0.00 0.00 41 1016.8
20260902141118 77 360 8.0 13.0 0.00 0.00 0.00 42 1016.9
20260902140505 77 360 10.0 18.0 0.00 0.00 0.00 42 1016.9
20260902135505 77 13 9.0 15.0 0.00 0.00 0.00 45 1017.0
20260902134116 76 12 10.0 15.0 0.00 0.00 0.00 46 1017.0
20260902133505 76 16 10.0 18.0 0.00 0.00 0.00 46 1017.0
20260902132505 77 10 11.0 18.0 0.00 0.00 0.00 45 1017.1
20260902131118 76 12 11.0 17.0 0.00 0.00 0.00 46 1017.2
20260902130505 77 11 11.0 17.0 0.00 0.00 0.00 45 1017.2
20260902125505 76 4 10.0 16.0 0.00 0.00 0.00 45 1017.2
20260902124117 77 1 9.0 15.0 0.00 0.00 0.00 43 1017.2
20260902123505 77 4 9.0 13.0 0.00 0.00 0.00 42 1017.4
20260902122505 78 353 8.0 11.0 0.00 0.00 0.00 42 1017.4
20260902121118 78 357 6.0 12.0 0.00 0.00 0.00 44 1017.6
20260902120504 78 3 4.0 8.0 0.00 0.00 0.00 41 1017.6
20260902115504 78 358 4.0 7.0 0.00 0.00 0.00 37 1017.7
20260902114118 77 350 3.0 7.0 0.00 0.00 0.00 41 1017.8
20260902113505 77 13 1.0 3.0 0.00 0.00 0.00 39 1018.0
20260902112505 76 5 2.0 5.0 0.00 0.00 0.00 38 1018.3
20260902111118 76 11 3.0 6.0 0.00 0.00 0.00 41 1018.4
20260902110505 75 349 3.0 7.0 0.00 0.00 0.00 44 1018.6
20260902105504 74 322 3.0 6.0 0.00 0.00 0.00 45 1018.7
20260902104118 73 309 3.0 7.0 0.00 0.00 0.00 47 1019.1
20260902103505 73 325 3.0 6.0 0.00 0.00 0.00 50 1019.3
20260902102504 71 316 1.0 2.0 0.00 0.00 0.00 54 1019.8
20260902101118 70 271 1.0 2.0 0.00 0.00 0.00 55 1020.0
20260902100505 69 164 1.0 2.0 0.00 0.00 0.00 55 1020.2
20260902095505 68 229 1.0 2.0 0.00 0.00 0.00 58 1020.5
20260902094118 68 295 1.0 3.0 0.00 0.00 0.00 60 1020.7
20260902093505 67 214 1.0 2.0 0.00 0.00 0.00 59 1021.1
20260902092504 66 251 1.0 2.0 0.00 0.00 0.00 63 1021.2
20260902091117 66 323 0.0 2.0 0.00 0.00 0.00 65 1021.4
20260902090505 65 360 0.0 2.0 0.00 0.00 0.00 67 1021.6
20260902084117 64 154 1.0 3.0 0.00 0.00 0.00 69 1021.9
20260902083505 63 162 2.0 4.0 0.00 0.00 0.00 70 1022.0
20260902082505 63 139 3.0 6.0 0.00 0.00 0.00 70 1022.2